Weather History for KLWD - January, 2014

Change the Weather History Date:

Thursday, January 23, 2014

  Actual Average Record
Temperature  
Mean Temperature 3 °F 24 °F  
Max Temperature 11 °F 34 °F 60 °F (1976)
Min Temperature -6 °F 15 °F -18 °F (1963)
Degree Days  
Heating Degree Days 62 41  
Month to date heating degree days 1079 943  
Since 1 July heating degree days 3625 3372  
Cooling Degree Days 0 0  
Month to date cooling degree days 0 0  
Year to date cooling degree days 0 0  
Moisture  
Dew Point -9 °F    
Average Humidity 59    
Maximum Humidity 72    
Minimum Humidity 46    
Precipitation  
Precipitation 0.00 in 0.02 in 0.31 in (1949)
Month to date precipitation 0.26 0.47  
Sea Level Pressure  
Sea Level Pressure 30.74 in    
Wind  
Wind Speed 12 mph (WNW)    
Max Wind Speed 21 mph    
Max Gust Speed 27 mph    
Visibility 10 miles    
Events      
T = Trace of Precipitation, MM = Missing Value Source: NWS Daily Summary

Daily Weather History Graph

Daily Weather History Graph

Search for Another Location

Airport or City:

Trip Planner

Search our weather history database for the weather conditions in past years. The results will help you decide how hot, cold, wet, or windy it might be!

Date:

Astronomy

Jan. 23, 2014 Rise Set
Actual Time 7:32 AM CST 5:22 PM CST
Civil Twilight 7:03 AM CST 5:52 PM CST
Nautical Twilight 6:30 AM CST 6:25 PM CST
Astronomical Twilight 5:57 AM CST 6:57 PM CST
Moon No Moon Rise 11:06 AM CST (1/23)
Length of Visible Light 10h 48m
Length of Day
9h 49m
Waning Gibbous, 55% of the Moon is Illuminated
Jan 23
Waning Gibbous
Jan 23
Last Quarter
Jan 30
New
Feb 6
First Quarter
Feb 14
Full

Hourly Weather History & Observations

Time (CST) Temp. Windchill Dew Point Humidity Pressure Visibility Wind Dir Wind Speed Gust Speed Precip Events Conditions
12:53 AM -2.0 °F -22.6 °F -11.9 °F 63% 30.58 in 10.0 mi NNW 16.1 mph 26.5 mph N/A   Clear
1:53 AM -2.9 °F -22.4 °F -11.9 °F 65% 30.60 in 10.0 mi NNW 13.8 mph - N/A   Clear
2:53 AM -2.9 °F -23.8 °F -11.9 °F 65% 30.63 in 10.0 mi NNW 16.1 mph 24.2 mph N/A   Clear
3:53 AM -4.0 °F -23.0 °F -11.9 °F 69% 30.65 in 10.0 mi NNW 12.7 mph - N/A   Clear
4:53 AM -4.0 °F -23.7 °F -11.9 °F 69% 30.68 in 10.0 mi NNW 13.8 mph - N/A   Clear
5:53 AM -5.1 °F -25.1 °F -13.0 °F 69% 30.71 in 10.0 mi NNW 13.8 mph - N/A   Clear
6:53 AM -6.0 °F -25.5 °F -13.0 °F 72% 30.75 in 10.0 mi NNW 12.7 mph - N/A   Clear
7:53 AM -6.0 °F -26.3 °F -13.0 °F 72% 30.77 in 10.0 mi NNW 13.8 mph - N/A   Clear
8:53 AM -2.9 °F -22.4 °F -11.9 °F 65% 30.81 in 10.0 mi NNW 13.8 mph - N/A   Clear
9:53 AM -0.9 °F -21.2 °F -11.9 °F 60% 30.83 in 10.0 mi NNW 16.1 mph - N/A   Clear
10:53 AM 1.9 °F -14.7 °F -11.0 °F 55% 30.85 in 10.0 mi NW 11.5 mph - N/A   Clear
11:53 AM 5.0 °F -12.3 °F -9.0 °F 52% 30.84 in 10.0 mi NW 13.8 mph 19.6 mph N/A   Clear
12:53 PM 7.0 °F -9.8 °F -8.0 °F 51% 30.82 in 10.0 mi NW 13.8 mph 19.6 mph N/A   Clear
1:53 PM 8.1 °F -9.0 °F -7.1 °F 50% 30.79 in 10.0 mi NNW 15.0 mph 20.7 mph N/A   Clear
2:53 PM 10.0 °F -3.7 °F -8.0 °F 44% 30.78 in 10.0 mi WNW 10.4 mph - N/A   Clear
3:53 PM 10.9 °F -4.1 °F -7.1 °F 44% 30.79 in 10.0 mi NW 12.7 mph - N/A   Clear
4:53 PM 10.0 °F -4.5 °F -7.1 °F 46% 30.78 in 10.0 mi WNW 11.5 mph - N/A   Clear
5:53 PM 6.1 °F -4.3 °F -6.0 °F 58% 30.79 in 10.0 mi West 5.8 mph - N/A   Clear
6:53 PM 5.0 °F -5.6 °F -6.0 °F 61% 30.77 in 10.0 mi West 5.8 mph - N/A   Clear
7:53 PM 3.9 °F -6.9 °F -6.0 °F 64% 30.76 in 10.0 mi WSW 5.8 mph - N/A   Clear
8:53 PM 3.9 °F -10.4 °F -6.0 °F 64% 30.73 in 10.0 mi SW 9.2 mph - N/A   Clear
9:53 PM 3.9 °F -9.4 °F -6.0 °F 64% 30.69 in 10.0 mi SW 8.1 mph - N/A   Clear
10:53 PM 3.9 °F -11.3 °F -6.0 °F 64% 30.66 in 10.0 mi SW 10.4 mph - N/A   Clear
11:53 PM 3.0 °F -13.3 °F -6.0 °F 66% 30.62 in 10.0 mi SSW 11.5 mph - N/A   Clear